EZY9007 EGCC-EGGW

Flight info

Callsign EZY9007
Flight time 0h 33m
Altitude 19000
Route LISTO L612 HON L15 FINMA
Aircraft A319/M-SDE3FGHIRWY/LB1

Departure

Time 2026-04-30 21:17
Airport Manchester Airport (EGCC)

Arrival

Time 2026-04-30 21:50
Airport London Luton Airport (EGGW)
Time Latitude Longitude Altitude Speed Heading
2026-04-30 21:05 53.35880 -2.27524 248 ft 0 kts 95°
2026-04-30 21:11 53.35881 -2.27546 248 ft 2 kts 95°
2026-04-30 21:11 53.35882 -2.27573 248 ft 2 kts 90°
2026-04-30 21:11 53.35881 -2.27605 248 ft 3 kts 101°
2026-04-30 21:11 53.35901 -2.27641 247 ft 5 kts 180°
2026-04-30 21:12 53.35909 -2.27641 248 ft 0 kts 186°
2026-04-30 21:13 53.35907 -2.27641 248 ft 1 kts 186°
2026-04-30 21:13 53.35889 -2.27645 248 ft 4 kts 187°
2026-04-30 21:13 53.35855 -2.27651 248 ft 7 kts 186°
2026-04-30 21:14 53.35784 -2.27663 248 ft 12 kts 186°
2026-04-30 21:14 53.35710 -2.27724 248 ft 13 kts 228°
2026-04-30 21:14 53.35646 -2.27853 248 ft 15 kts 225°
2026-04-30 21:14 53.35539 -2.27910 247 ft 17 kts 186°
2026-04-30 21:15 53.35416 -2.27984 243 ft 21 kts 222°
2026-04-30 21:15 53.35312 -2.28153 239 ft 19 kts 221°
2026-04-30 21:15 53.35177 -2.28202 235 ft 17 kts 186°
2026-04-30 21:15 53.35090 -2.28114 238 ft 14 kts 92°
2026-04-30 21:16 53.35100 -2.28070 239 ft 0 kts 52°
2026-04-30 21:16 53.35101 -2.28065 239 ft 2 kts 56°
2026-04-30 21:16 53.35116 -2.28033 239 ft 9 kts 52°
2026-04-30 21:17 53.35366 -2.27514 258 ft 104 kts 51°
2026-04-30 21:17 53.35984 -2.26259 424 ft 161 kts 49°
2026-04-30 21:17 53.36731 -2.24767 1255 ft 167 kts 57°
2026-04-30 21:17 53.37415 -2.23165 2076 ft 175 kts 76°
2026-04-30 21:18 53.37502 -2.21102 2675 ft 188 kts 112°
2026-04-30 21:18 53.36695 -2.19331 3329 ft 206 kts 152°
2026-04-30 21:18 53.35276 -2.18423 4076 ft 231 kts 163°
2026-04-30 21:18 53.33676 -2.17583 5034 ft 248 kts 164°
2026-04-30 21:19 53.32005 -2.16719 6198 ft 255 kts 163°
2026-04-30 21:19 53.30299 -2.15826 7402 ft 259 kts 162°
2026-04-30 21:19 53.28566 -2.14908 8591 ft 263 kts 162°
2026-04-30 21:19 53.26801 -2.13970 9794 ft 268 kts 162°
2026-04-30 21:20 53.24999 -2.13014 10689 ft 282 kts 162°
2026-04-30 21:20 53.23051 -2.11976 11379 ft 300 kts 162°
2026-04-30 21:20 53.21037 -2.10903 12362 ft 307 kts 162°
2026-04-30 21:20 53.18992 -2.09819 13424 ft 311 kts 162°
2026-04-30 21:21 53.16917 -2.08718 14451 ft 314 kts 162°
2026-04-30 21:21 53.14852 -2.07620 15364 ft 318 kts 162°
2026-04-30 21:21 53.10587 -2.05357 17182 ft 326 kts 162°
2026-04-30 21:22 53.08416 -2.04210 18068 ft 330 kts 162°
2026-04-30 21:22 53.01722 -2.00681 19205 ft 336 kts 162°
2026-04-30 21:23 52.99434 -1.99469 19231 ft 361 kts 162°
2026-04-30 21:23 52.96947 -1.98150 19229 ft 386 kts 162°
2026-04-30 21:23 52.91572 -1.95315 19222 ft 416 kts 162°
2026-04-30 21:24 52.88811 -1.93869 19224 ft 418 kts 162°
2026-04-30 21:24 52.85997 -1.92399 19225 ft 419 kts 162°
2026-04-30 21:24 52.83255 -1.90967 19225 ft 419 kts 162°
2026-04-30 21:24 52.80467 -1.89511 19222 ft 419 kts 162°
2026-04-30 21:25 52.74912 -1.86616 19228 ft 419 kts 162°
2026-04-30 21:25 52.72134 -1.85172 19223 ft 418 kts 162°
2026-04-30 21:25 52.69356 -1.83734 19222 ft 418 kts 162°
2026-04-30 21:26 52.63802 -1.80855 19221 ft 419 kts 162°
2026-04-30 21:26 52.61020 -1.79413 19224 ft 419 kts 162°
2026-04-30 21:27 52.55464 -1.76542 19229 ft 419 kts 162°
2026-04-30 21:27 52.52682 -1.75103 19232 ft 419 kts 162°
2026-04-30 21:27 52.49906 -1.73668 19238 ft 419 kts 162°
2026-04-30 21:28 52.44347 -1.70815 19234 ft 419 kts 162°
2026-04-30 21:28 52.41560 -1.69391 19233 ft 419 kts 162°
2026-04-30 21:28 52.36087 -1.66195 19227 ft 419 kts 150°
2026-04-30 21:29 52.33810 -1.63226 19233 ft 420 kts 136°
2026-04-30 21:29 52.27749 -1.52861 19255 ft 420 kts 135°
2026-04-30 21:30 52.23716 -1.45975 19244 ft 413 kts 135°
2026-04-30 21:31 52.17939 -1.36139 19085 ft 393 kts 135°
2026-04-30 21:31 52.14184 -1.29790 17485 ft 386 kts 135°
2026-04-30 21:32 52.10500 -1.23580 16400 ft 368 kts 135°
2026-04-30 21:32 52.08793 -1.20702 16271 ft 341 kts 135°
2026-04-30 21:32 52.07210 -1.18007 16140 ft 318 kts 133°
2026-04-30 21:32 52.06033 -1.15092 15966 ft 302 kts 121°
2026-04-30 21:33 52.05036 -1.12148 15540 ft 295 kts 122°
2026-04-30 21:33 52.03059 -1.06294 14404 ft 298 kts 122°
2026-04-30 21:33 52.02065 -1.03354 13815 ft 297 kts 122°
2026-04-30 21:34 52.01069 -1.00412 13186 ft 296 kts 122°
2026-04-30 21:34 51.99090 -0.94582 11941 ft 294 kts 121°
2026-04-30 21:34 51.98105 -0.91686 11352 ft 292 kts 121°
2026-04-30 21:35 51.97117 -0.88780 10770 ft 290 kts 121°
2026-04-30 21:35 51.96155 -0.85947 10194 ft 288 kts 121°
2026-04-30 21:35 51.95188 -0.83102 9581 ft 286 kts 121°
2026-04-30 21:35 51.94230 -0.80290 8963 ft 284 kts 121°
2026-04-30 21:36 51.93280 -0.77508 8363 ft 281 kts 121°
2026-04-30 21:36 51.92341 -0.74762 7767 ft 278 kts 121°
2026-04-30 21:37 51.89570 -0.66678 5981 ft 269 kts 121°
2026-04-30 21:37 51.88663 -0.64044 5384 ft 266 kts 121°
2026-04-30 21:37 51.87768 -0.61448 4781 ft 263 kts 122°
2026-04-30 21:37 51.86885 -0.58878 4170 ft 258 kts 122°
2026-04-30 21:38 51.86030 -0.56387 3577 ft 248 kts 122°
2026-04-30 21:38 51.85278 -0.53935 2955 ft 241 kts 112°
2026-04-30 21:38 51.85058 -0.51262 2328 ft 243 kts 91°
2026-04-30 21:38 51.85419 -0.48637 1896 ft 241 kts 80°
2026-04-30 21:39 51.85868 -0.46066 1531 ft 230 kts 78°
2026-04-30 21:39 51.86283 -0.43683 1231 ft 205 kts 77°
2026-04-30 21:39 51.86646 -0.41589 1041 ft 185 kts 76°
2026-04-30 21:39 51.86937 -0.39708 1562 ft 171 kts 86°
2026-04-30 21:40 51.87239 -0.37797 1904 ft 177 kts 81°
2026-04-30 21:40 51.87514 -0.35905 1987 ft 167 kts 100°
2026-04-30 21:40 51.87292 -0.34101 2011 ft 163 kts 111°
2026-04-30 21:40 51.86836 -0.32456 2004 ft 159 kts 134°
2026-04-30 21:41 51.85981 -0.31332 2015 ft 159 kts 146°
2026-04-30 21:41 51.84918 -0.30900 2015 ft 164 kts 178°
2026-04-30 21:41 51.83808 -0.31186 2012 ft 163 kts 185°
2026-04-30 21:41 51.82618 -0.31595 2018 ft 184 kts 186°
2026-04-30 21:42 51.81350 -0.32033 2014 ft 187 kts 186°
2026-04-30 21:42 51.80077 -0.32489 2017 ft 190 kts 189°
2026-04-30 21:42 51.78911 -0.33597 2012 ft 204 kts 219°
2026-04-30 21:42 51.78270 -0.35688 2062 ft 219 kts 255°
2026-04-30 21:43 51.78077 -0.38153 2007 ft 217 kts 247°
2026-04-30 21:43 51.77725 -0.39633 2016 ft 212 kts 237°
2026-04-30 21:43 51.76866 -0.42476 2061 ft 210 kts 235°
2026-04-30 21:43 51.76210 -0.44580 2063 ft 211 kts 236°
2026-04-30 21:44 51.75544 -0.46679 2053 ft 211 kts 235°
2026-04-30 21:44 51.74868 -0.48795 2063 ft 212 kts 235°
2026-04-30 21:44 51.74312 -0.51016 2042 ft 220 kts 252°
2026-04-30 21:44 51.74463 -0.53525 2057 ft 233 kts 288°
2026-04-30 21:45 51.75472 -0.55567 2009 ft 238 kts 327°
2026-04-30 21:45 51.76968 -0.56698 2023 ft 239 kts 338°
2026-04-30 21:45 51.78466 -0.57819 2015 ft 238 kts 336°
2026-04-30 21:45 51.79964 -0.58949 2110 ft 236 kts 339°
2026-04-30 21:46 51.81568 -0.59401 2253 ft 233 kts 10°
2026-04-30 21:46 51.83008 -0.58615 2304 ft 206 kts 43°
2026-04-30 21:46 51.83885 -0.57034 2308 ft 177 kts 72°
2026-04-30 21:46 51.84261 -0.55248 2307 ft 164 kts 84°
2026-04-30 21:47 51.84569 -0.53485 2311 ft 160 kts 85°
2026-04-30 21:47 51.84863 -0.51818 2221 ft 152 kts 85°
2026-04-30 21:47 51.85051 -0.50734 2102 ft 150 kts 85°
2026-04-30 21:47 51.85328 -0.49161 1924 ft 136 kts 85°
2026-04-30 21:48 51.85571 -0.47784 1743 ft 119 kts 85°
2026-04-30 21:48 51.85787 -0.46535 1581 ft 113 kts 85°
2026-04-30 21:48 51.85998 -0.45318 1436 ft 109 kts 83°
2026-04-30 21:48 51.86203 -0.44130 1289 ft 111 kts 81°
2026-04-30 21:49 51.86409 -0.42940 1143 ft 111 kts 80°
2026-04-30 21:49 51.86619 -0.41733 999 ft 112 kts 78°
2026-04-30 21:49 51.86830 -0.40516 844 ft 110 kts 77°
2026-04-30 21:49 51.87032 -0.39341 699 ft 108 kts 79°
2026-04-30 21:50 51.87239 -0.38151 549 ft 109 kts 77°
2026-04-30 21:50 51.87417 -0.37073 523 ft 70 kts 73°
2026-04-30 21:50 51.87534 -0.36427 522 ft 53 kts 75°
2026-04-30 21:50 51.87609 -0.35999 516 ft 30 kts 74°
2026-04-30 21:51 51.87712 -0.35941 516 ft 17 kts 341°
2026-04-30 21:51 51.87783 -0.36071 518 ft 16 kts 266°
2026-04-30 21:51 51.87753 -0.36255 518 ft 18 kts 254°
2026-04-30 21:51 51.87719 -0.36453 519 ft 19 kts 255°
2026-04-30 21:52 51.87683 -0.36663 522 ft 20 kts 255°
2026-04-30 21:52 51.87646 -0.36873 526 ft 19 kts 253°
2026-04-30 21:52 51.87607 -0.37103 522 ft 23 kts 254°
2026-04-30 21:52 51.87577 -0.37332 522 ft 19 kts 274°
2026-04-30 21:53 51.87636 -0.37466 523 ft 16 kts 324°
2026-04-30 21:53 51.87706 -0.37594 519 ft 16 kts 294°
2026-04-30 21:53 51.87750 -0.37744 524 ft 6 kts 294°
2026-04-30 21:53 51.87776 -0.37814 524 ft 8 kts 325°
2026-04-30 21:54 51.87798 -0.37801 524 ft 1 kts 30°
2026-04-30 21:54 51.87814 -0.37790 524 ft 4 kts 24°
2026-04-30 21:54 51.87826 -0.37781 524 ft 1 kts 25°
2026-04-30 21:54 51.87828 -0.37779 524 ft 0 kts 25°